Location: Wanzleben
(52.0609°N, 11.4408°E)
Time: 10:44:54
(UTC+00:00)

COSMOS 2406 - Visible Passes

Search period start: 20 June 2021 00:00
Search period end: 30 June 2021 00:00
Orbit: 844 x 862 km, 71.0° (Epoch: 19 June)

Date Brightness Start Highest point End Pass type
(mag) Time Alt. Az. Time Alt. Az. Time Alt. Az.
20 Jun 5.4 01:48:33 10° SE 01:52:19 18° E 01:56:05 10° ENE visible
21 Jun 5.4 01:37:00 10° SE 01:40:48 19° E 01:44:37 10° ENE visible
22 Jun 5.3 01:25:27 10° SE 01:29:16 19° E 01:33:07 10° ENE visible
23 Jun 5.3 01:13:54 10° SE 01:17:46 19° E 01:21:38 10° ENE visible
24 Jun 5.2 01:02:22 10° SE 01:06:15 19° E 01:10:09 10° NE visible
25 Jun 5.2 00:50:49 10° SE 00:54:44 20° E 00:58:41 10° NE visible
26 Jun 5.1 00:39:16 10° SE 00:43:13 20° E 00:47:11 10° NE visible
27 Jun 5.1 00:27:43 10° SE 00:31:42 20° E 00:35:42 10° NE visible
28 Jun 5.0 00:16:10 10° SE 00:20:11 20° E 00:24:13 10° NE visible
28 Jun 3.3 01:58:07 10° SSW 02:03:48 83° WNW 02:09:32 10° NNE visible
29 Jun 5.0 00:04:37 10° SSE 00:08:40 20° E 00:12:43 10° NE visible
29 Jun 3.3 01:46:37 10° SSW 01:52:18 82° WNW 01:58:02 10° NNE visible
